Independence, KS

9:49 AM CDT on August 20, 2017 (GMT -0500)
Independence Municipal

Weather History for KIDP - March, 2013

Change the Weather History Date:

Monday, March 11, 2013

  Actual Average (KCFV) Record (KCFV)
Temperature  
Mean Temperature 37 °F -  
Max Temperature 46 °F 52 °F 82 °F (2014)
Min Temperature 28 °F 31 °F 15 °F (1998)
Degree Days  
Heating Degree Days 28    
Moisture  
Dew Point 22 °F    
Average Humidity 61    
Maximum Humidity 87    
Minimum Humidity 25    
Precipitation  
Precipitation 0.00 in - - ()
Sea Level Pressure  
Sea Level Pressure 29.99 in    
Wind  
Wind Speed 10 mph (WNW)    
Max Wind Speed 17 mph    
Max Gust Speed 21 mph    
Visibility 10 miles    
Events Snow    
Averages and records for this station are not official NWS values.
T = Trace of Precipitation, MM = Missing Value Source: NWS Daily Summary

Daily Weather History Graph

Daily Weather History Graph

Search for Another Location

Airport or City:

Trip Planner

Search our weather history database for the weather conditions in past years. The results will help you decide how hot, cold, wet, or windy it might be!

Date:

Astronomy

Mar. 11, 2013 Rise Set
Actual Time 7:39 AM CDT 7:27 PM CDT
Civil Twilight 7:13 AM CDT 7:52 PM CDT
Nautical Twilight 6:43 AM CDT 8:23 PM CDT
Astronomical Twilight 6:13 AM CDT 8:53 PM CDT
Moon 7:14 AM CDT (3/11) 7:38 PM CDT (3/11)
Length of Visible Light 12h 39m
Length of Day
11h 47m
Waning Crescent, 0% of the Moon is Illuminated
Mar 11
Waning Crescent
Mar 11
New
Mar 19
First Quarter
Mar 27
Full
Apr 2
Last Quarter

Hourly Weather History & Observations

Time (CDT) Temp. Windchill Dew Point Humidity Pressure Visibility Wind Dir Wind Speed Gust Speed Precip Events Conditions
12:15 AM 30.2 °F 19.3 °F 23.0 °F 75% 30.00 in 10.0 mi NW 15.0 mph 19.6 mph N/A   Overcast
12:35 AM 30.2 °F 20.2 °F 23.0 °F 75% 30.00 in 10.0 mi NW 12.7 mph - N/A   Overcast
12:55 AM 30.2 °F 19.3 °F 23.0 °F 75% 30.00 in 10.0 mi NW 15.0 mph 20.7 mph N/A   Overcast
1:15 AM 30.2 °F 20.8 °F 23.0 °F 75% 30.00 in 10.0 mi NW 11.5 mph - N/A   Overcast
1:35 AM 30.2 °F 19.3 °F 23.0 °F 75% 29.99 in 10.0 mi NW 15.0 mph 19.6 mph N/A   Overcast
2:15 AM 30.2 °F 19.8 °F 23.0 °F 75% 29.99 in 10.0 mi NW 13.8 mph - N/A   Overcast
2:35 AM 30.2 °F 21.3 °F 23.0 °F 75% 30.00 in 10.0 mi NW 10.4 mph - N/A   Overcast
2:55 AM 30.2 °F 19.8 °F 23.0 °F 75% 29.99 in 10.0 mi WNW 13.8 mph - N/A   Overcast
3:15 AM 30.2 °F 20.2 °F 23.0 °F 75% 29.98 in 10.0 mi NW 12.7 mph - N/A   Overcast
3:35 AM 30.2 °F 21.9 °F 23.0 °F 75% 29.97 in 10.0 mi NW 9.2 mph - N/A   Overcast
3:55 AM 30.2 °F 20.2 °F 23.0 °F 75% 29.97 in 10.0 mi NW 12.7 mph - N/A   Overcast
4:15 AM 30.2 °F 20.8 °F 23.0 °F 75% 29.97 in 5.0 mi NW 11.5 mph - N/A Snow Light Snow
4:35 AM 28.4 °F 21.2 °F 24.8 °F 86% 29.98 in 7.0 mi WNW 6.9 mph - N/A   Mostly Cloudy
4:55 AM 30.2 °F 22.6 °F 23.0 °F 75% 29.98 in 10.0 mi WNW 8.1 mph - N/A   Mostly Cloudy
5:15 AM 30.2 °F 24.3 °F 23.0 °F 75% 29.97 in 10.0 mi WNW 5.8 mph - N/A   Overcast
5:35 AM 30.2 °F 26.7 °F 23.0 °F 75% 29.97 in 10.0 mi WNW 3.5 mph - N/A   Overcast
5:55 AM 30.2 °F 26.7 °F 23.0 °F 75% 29.98 in 10.0 mi WNW 3.5 mph - N/A   Overcast
6:15 AM 30.2 °F 24.3 °F 23.0 °F 75% 29.98 in 10.0 mi WNW 5.8 mph - N/A   Overcast
6:35 AM 30.2 °F 23.4 °F 23.0 °F 75% 29.99 in 10.0 mi WNW 6.9 mph - N/A   Overcast
6:55 AM 30.2 °F 21.9 °F 23.0 °F 75% 29.99 in 10.0 mi WNW 9.2 mph - N/A   Overcast
7:15 AM 30.2 °F 22.6 °F 23.0 °F 75% 29.99 in 10.0 mi NW 8.1 mph - N/A   Overcast
7:35 AM 30.2 °F 21.3 °F 23.0 °F 75% 29.98 in 10.0 mi NW 10.4 mph - N/A   Overcast
7:55 AM 28.4 °F 19.1 °F 23.0 °F 80% 29.99 in 10.0 mi NW 10.4 mph - N/A   Scattered Clouds
8:15 AM 28.4 °F 18.5 °F 23.0 °F 80% 29.99 in 10.0 mi WNW 11.5 mph - N/A   Scattered Clouds
8:35 AM 28.4 °F 17.5 °F 21.2 °F 74% 30.00 in 10.0 mi NW 13.8 mph 20.7 mph N/A   Scattered Clouds
8:55 AM 30.2 °F 19.3 °F 21.2 °F 69% 30.00 in 10.0 mi NW 15.0 mph 19.6 mph N/A   Clear
9:15 AM 30.2 °F 19.8 °F 21.2 °F 69% 30.00 in 10.0 mi NW 13.8 mph 18.4 mph N/A   Clear
9:35 AM 30.2 °F 20.2 °F 21.2 °F 69% 30.00 in 10.0 mi NW 12.7 mph 17.3 mph N/A   Clear
9:55 AM 30.2 °F 18.5 °F 23.0 °F 75% 30.01 in 10.0 mi NW 17.3 mph - N/A   Clear
10:15 AM 32.0 °F 22.5 °F 23.0 °F 69% 30.01 in 10.0 mi NW 12.7 mph 17.3 mph N/A   Clear
10:35 AM 32.0 °F 22.5 °F 23.0 °F 69% 30.01 in 10.0 mi WNW 12.7 mph 17.3 mph N/A   Clear
10:55 AM 32.0 °F 24.2 °F 21.2 °F 64% 30.01 in 10.0 mi WNW 9.2 mph - N/A   Clear
11:15 AM 32.0 °F 22.5 °F 23.0 °F 69% 30.01 in 10.0 mi NW 12.7 mph 19.6 mph N/A   Clear
11:35 AM 33.8 °F 23.9 °F 23.0 °F 65% 30.01 in 10.0 mi WNW 15.0 mph - N/A   Clear
11:55 AM 33.8 °F 25.3 °F 23.0 °F 65% 30.01 in 10.0 mi NW 11.5 mph - N/A   Clear
12:15 PM 35.6 °F 26.6 °F 21.2 °F 56% 30.01 in 10.0 mi West 13.8 mph 19.6 mph N/A   Clear
12:35 PM 35.6 °F 28.6 °F 21.2 °F 56% 30.00 in 10.0 mi WNW 9.2 mph - N/A   Clear
1:15 PM 39.2 °F 32.5 °F 21.2 °F 49% 29.99 in 10.0 mi WNW 10.4 mph 18.4 mph N/A   Clear
1:35 PM 39.2 °F 31.6 °F 19.4 °F 45% 29.99 in 10.0 mi WNW 12.7 mph 16.1 mph N/A   Clear
1:55 PM 41.0 °F 33.5 °F 19.4 °F 42% 29.98 in 10.0 mi NW 13.8 mph 20.7 mph N/A   Clear
2:15 PM 41.0 °F 34.3 °F 17.6 °F 39% 29.98 in 10.0 mi NW 11.5 mph 18.4 mph N/A   Clear
2:35 PM 42.8 °F 35.4 °F 17.6 °F 36% 29.97 in 10.0 mi WNW 15.0 mph 18.4 mph N/A   Clear
2:55 PM 44.6 °F 38.4 °F 17.6 °F 34% 29.97 in 10.0 mi WNW 12.7 mph 17.3 mph N/A   Clear
3:15 PM 44.6 °F 38.4 °F 17.6 °F 34% 29.97 in 10.0 mi WNW 12.7 mph - N/A   Clear
3:35 PM 44.6 °F 39.2 °F 17.6 °F 34% 29.97 in 10.0 mi NW 10.4 mph 19.6 mph N/A   Clear
3:55 PM 46.4 °F 41.5 °F 14.0 °F 27% 29.97 in 10.0 mi NW 10.4 mph 16.1 mph N/A   Clear
4:15 PM 46.4 °F 42.4 °F 15.8 °F 29% 29.96 in 10.0 mi WNW 8.1 mph 17.3 mph N/A   Clear
4:35 PM 46.4 °F 41.5 °F 14.0 °F 27% 29.97 in 10.0 mi WNW 10.4 mph - N/A   Clear
4:55 PM 46.4 °F 42.4 °F 15.8 °F 29% 29.96 in 10.0 mi WNW 8.1 mph 16.1 mph N/A   Clear
5:15 PM 46.4 °F 41.5 °F 12.2 °F 25% 29.96 in 10.0 mi WNW 10.4 mph - N/A   Clear
5:35 PM 46.4 °F 41.9 °F 14.0 °F 27% 29.96 in 10.0 mi WNW 9.2 mph - N/A   Clear
6:15 PM 46.4 °F 41.9 °F 17.6 °F 32% 29.97 in 10.0 mi NW 9.2 mph - N/A   Clear
6:35 PM 44.6 °F 40.2 °F 17.6 °F 34% 29.97 in 10.0 mi NW 8.1 mph - N/A   Clear
6:55 PM 44.6 °F 41.4 °F 19.4 °F 37% 29.98 in 10.0 mi NW 5.8 mph - N/A   Clear
7:15 PM 42.8 °F 40.1 °F 21.2 °F 42% 29.98 in 10.0 mi WNW 4.6 mph - N/A   Clear
7:35 PM 44.6 °F - 19.4 °F 37% 29.98 in 10.0 mi Calm Calm - N/A   Clear
7:55 PM 42.8 °F - 21.2 °F 42% 29.98 in 10.0 mi Calm Calm - N/A   Clear
8:15 PM 41.0 °F 38.0 °F 28.4 °F 61% 30.00 in 10.0 mi WNW 4.6 mph - N/A   Clear
8:35 PM 41.0 °F 38.0 °F 21.2 °F 45% 30.01 in 10.0 mi West 4.6 mph - N/A   Clear
8:55 PM 41.0 °F - 21.2 °F 45% 30.01 in 10.0 mi Calm Calm - N/A   Clear
9:15 PM 39.2 °F - 21.2 °F 49% 30.02 in 10.0 mi Calm Calm - N/A   Clear
9:35 PM 37.4 °F 34.9 °F 21.2 °F 52% 30.02 in 10.0 mi West 3.5 mph - N/A   Clear
9:55 PM 35.6 °F - 26.6 °F 70% 30.02 in 10.0 mi Calm Calm - N/A   Clear
10:15 PM 35.6 °F - 28.4 °F 75% 30.03 in 10.0 mi Calm Calm - N/A   Clear
10:35 PM 33.8 °F - 28.4 °F 81% 30.02 in 10.0 mi Calm Calm - N/A   Clear
10:55 PM 33.8 °F 30.8 °F 28.4 °F 81% 30.03 in 10.0 mi SW 3.5 mph - N/A   Clear
11:15 PM 32.0 °F - 28.4 °F 87% 30.03 in 10.0 mi Calm Calm - N/A   Clear
11:35 PM 33.8 °F - 26.6 °F 75% 30.03 in 10.0 mi Calm Calm - N/A   Clear
11:55 PM 33.8 °F - 23.0 °F 65% 30.03 in 10.0 mi Calm Calm - N/A   Clear